Weather History for Tours, France

Change the Weather History Date:

Sunday, July 21, 2013

  Actual Average Record
Temperature  
Mean Temperature 78 °F -  
Max Temperature 92 °F 76 °F 95 °F (2006)
Min Temperature 65 °F 56 °F 48 °F (2008)
Cooling Degree Days 14    
Growing Degree Days 28 (Base 50)    
Moisture  
Dew Point 60 °F    
Average Humidity 54    
Maximum Humidity 83    
Minimum Humidity 23    
Precipitation  
Precipitation 0.00 in - - ()
Sea Level Pressure  
Sea Level Pressure 30.00 in    
Wind  
Wind Speed 5 mph ()    
Max Wind Speed 10 mph    
Max Gust Speed -    
Visibility 7.3 miles    
Events      
Averages and records for this station are not official NWS values.
T = Trace of Precipitation, MM = Missing Value Source: Averaged Metar Reports

Daily Weather History Graph

Daily Weather History Graph

Search for Another Location

Airport:

Trip Planner

Search our weather history database for the weather conditions in past years. The results will help you decide how hot, cold, wet, or windy it might be!

Date:

Astronomy

Jul. 21, 2013 Rise Set
Actual Time 6:21 AM CEST 9:44 PM CEST
Civil Twilight 5:44 AM CEST 10:21 PM CEST
Nautical Twilight 4:54 AM CEST 11:11 PM CEST
Astronomical Twilight 3:49 AM CEST 12:14 AM CEST
Moon 8:26 PM CEST (7/21) 4:51 AM CEST (7/21)
Length of Visible Light 16h 37m
Length of Day
15h 22m
Waxing Gibbous, 97% of the Moon is Illuminated
Jul 21
Waxing Gibbous
Jul 22
Full
Jul 29
Last Quarter
Aug 6
New
Aug 14
First Quarter

Hourly Weather History & Observations

Time (CEST) Temp. Heat Index Dew Point Humidity Pressure Visibility Wind Dir Wind Speed Gust Speed Precip Events Conditions
12:00 AM 73.4 °F - 62.6 °F 69% 30.01 in - Variable 2.3 mph - N/A   Clear
1:00 AM 71.6 °F - 62.6 °F 73% 30.01 in - Calm Calm - N/A   Clear
2:00 AM 71 °F - 62 °F 67% 30.00 in 16 mi NE 9.2 mph - -   Clear
2:00 AM 71.6 °F - 62.6 °F 73% 30.01 in - NE 9.2 mph - N/A   Clear
2:30 AM 69.8 °F - 62.6 °F 78% 30.01 in 6.2 mi ENE 9.2 mph - N/A   Unknown
3:00 AM 69.8 °F - 60.8 °F 73% 30.01 in 6.2 mi NE 9.2 mph - N/A   Unknown
3:30 AM 69.8 °F - 60.8 °F 73% 29.98 in 6.2 mi ENE 10.4 mph - N/A   Unknown
4:00 AM 68.0 °F - 60.8 °F 78% 29.98 in 6.2 mi ENE 10.4 mph - N/A   Unknown
4:30 AM 68.0 °F - 60.8 °F 78% 29.98 in 6.2 mi ENE 10.4 mph - N/A   Unknown
5:00 AM 68.0 °F - 60.8 °F 78% 29.98 in - ENE 9.2 mph - N/A   Clear
5:30 AM 66.2 °F - 60.8 °F 83% 29.98 in - NE 5.8 mph - N/A   Clear
6:00 AM 66.2 °F - 60.8 °F 83% 29.98 in - NE 4.6 mph - N/A   Clear
6:30 AM 66.2 °F - 60.8 °F 83% 30.01 in - ENE 5.8 mph - N/A   Clear
7:00 AM 66.2 °F - 60.8 °F 83% 30.01 in - ENE 5.8 mph - N/A   Clear
7:30 AM 68.0 °F - 62.6 °F 83% 30.01 in - ENE 4.6 mph - N/A   Clear
8:00 AM 69 °F - 62 °F 74% 30.01 in 12 mi ENE 5.8 mph - -   Partly Cloudy
8:00 AM 69.8 °F - 62.6 °F 78% 30.01 in - ENE 5.8 mph - N/A   Clear
8:30 AM 69.8 °F - 62.6 °F 78% 30.01 in 6.2 mi ENE 6.9 mph - N/A   Unknown
9:00 AM 73.4 °F - 62.6 °F 69% 30.01 in 6.2 mi East 6.9 mph - N/A   Unknown
9:30 AM 75.2 °F - 62.6 °F 65% 30.01 in 6.2 mi East 5.8 mph - N/A   Unknown
10:00 AM 77.0 °F - 62.6 °F 61% 30.01 in 6.2 mi ESE 3.5 mph - N/A   Unknown
10:30 AM 80.6 °F 82.3 °F 64.4 °F 58% 30.01 in 6.2 mi ESE 4.6 mph - N/A   Unknown
11:00 AM 82.4 °F 84.6 °F 66.2 °F 58% 30.01 in 6.2 mi ESE 4.6 mph - N/A   Unknown
11:30 AM 84.2 °F 85.6 °F 64.4 °F 51% 30.01 in 6.2 mi Variable 3.5 mph - N/A   Unknown
12:00 PM 86.0 °F 87.3 °F 64.4 °F 48% 30.01 in 6.2 mi SE 3.5 mph - N/A   Unknown
12:30 PM 87.8 °F 89.4 °F 64.4 °F 46% 30.01 in 6.2 mi SE 5.8 mph - N/A   Unknown
1:00 PM 87.8 °F 88.5 °F 62.6 °F 43% 30.01 in 6.2 mi Variable 3.5 mph - N/A   Unknown
1:30 PM 87.8 °F 87.1 °F 59.0 °F 38% 30.01 in 6.2 mi ESE 4.6 mph - N/A   Unknown
2:00 PM 89 °F - 57 °F 24% 29.99 in 12 mi SSE 6.9 mph - -   Clear
2:00 PM 89.6 °F 88.1 °F 57.2 °F 33% 30.01 in 6.2 mi SSE 6.9 mph - N/A   Unknown
2:30 PM 89.6 °F 88.1 °F 57.2 °F 33% 30.01 in 6.2 mi Variable 3.5 mph - N/A   Unknown
3:00 PM 91.4 °F 89.4 °F 55.4 °F 29% 30.01 in 6.2 mi East 4.6 mph - N/A   Unknown
3:30 PM 91.4 °F 89.1 °F 53.6 °F 28% 30.01 in 6.2 mi Variable 3.5 mph - N/A   Unknown
4:00 PM 89.6 °F 87.3 °F 53.6 °F 29% 30.01 in 6.2 mi South 6.9 mph - N/A   Unknown
4:30 PM 91.4 °F - 51.8 °F 26% 29.98 in 6.2 mi Variable 2.3 mph - N/A   Unknown
5:00 PM 93.2 °F - 50.0 °F 23% 29.98 in 6.2 mi SE 4.6 mph - N/A   Unknown
5:30 PM 93.2 °F 91.3 °F 55.4 °F 28% 29.98 in 6.2 mi Variable 3.5 mph - N/A   Unknown
6:00 PM 91.4 °F 89.4 °F 55.4 °F 29% 29.98 in 6.2 mi West 5.8 mph - N/A   Unknown
6:30 PM 91.4 °F 89.1 °F 53.6 °F 28% 29.98 in 6.2 mi Variable 3.5 mph - N/A   Unknown
7:00 PM 89.6 °F 87.3 °F 53.6 °F 29% 29.98 in 6.2 mi WNW 3.5 mph - N/A   Unknown
7:30 PM 87.8 °F 87.1 °F 59.0 °F 38% 29.98 in 6.2 mi West 4.6 mph - N/A   Unknown
8:00 PM 86 °F - 57 °F 27% 29.98 in 19 mi West 4.6 mph - -   Clear
8:00 PM 86.0 °F 84.9 °F 57.2 °F 37% 29.98 in - West 4.6 mph - N/A   Clear
8:30 PM 86.0 °F 85.4 °F 59.0 °F 40% 29.98 in - WNW 3.5 mph - N/A   Clear
9:00 PM 86.0 °F 84.2 °F 53.6 °F 33% 29.98 in - NW 3.5 mph - N/A   Clear
9:30 PM 82.4 °F 82.5 °F 59.0 °F 45% 29.98 in - WNW 3.5 mph - N/A   Clear
10:00 PM 82.4 °F 82.9 °F 60.8 °F 48% 30.01 in - NNW 3.5 mph - N/A   Clear
10:30 PM 80.6 °F 81.5 °F 60.8 °F 51% 30.01 in - North 4.6 mph - N/A   Clear
11:00 PM 78.8 °F - 62.6 °F 57% 30.04 in - North 4.6 mph - N/A   Clear
11:30 PM 77.0 °F - 60.8 °F 57% 30.01 in - North 9.2 mph - N/A   Clear